Content
SEND FEEDBACK

Daily
Averages
Monthly
Summary
United States of America

WESTERNPORT, MARYLAND


Home > North America > United States > Maryland
Elevation: 922 feet     Latitude: 39 29N     Longitude: 079 03W

WEATHER
 
SELECT A DAY
Number of Records: 200,378;   Date Range: 5/31/06 - 10/23/14
 
SHARE

PRINT THIS DATA

[ ← Previous Day ]
WEATHER ALMANAC - JULY 10, 2014
[ Next Day → ]
[ °C ]   °F
Weather ElementAverageHighLow
Temperature66.1 °F73.4 °F (2:25 pm)57.2 °F (1:55 am)
Dewpoint50.2 °F62.6 °F (10:35 am) (7:00 pm)
Humidity73.7 %100 % (12:50 am)46 % (7:30 pm)
Barometer30.17 in30.23 in (12:05 am)30.11 in (9:55 pm)
Wind Speed3.5 mph8.1 mph (1:35 pm)
Weather ElementAverage
Visibility10 mi
Wind DirectionSSE (172.9 °)

Weather ElementTotal
Precipitation---
Cooling Degree Days0.3 (Base 65)
Growing Degree Days15.3 (Base 50)
Averaged from 65 records on July 10, 2014
WEATHER CONDITIONS BREAKOUT
WIND DIRECTION BREAKOUT
WEATHER BY HOUR - JULY 10, 2014
[ °C ]   °F
Local TimeTemperatureDewpointHumidityBarometerVisibilityWind DirectionWind SpeedGust SpeedPrecipitationEventsConditions
12:55 AM62.6 °F59.0 °F88 %30.11 in10.0 miWest (260°)4.6 mphClear
1:15 AM62.6 °F59.0 °F88 %30.11 in10.0 miWSW (250°)3.5 mphClear
1:35 AM60.8 °F59.0 °F94 %30.11 in10.0 miWSW (240°)4.6 mphClear
1:55 AM60.8 °F59.0 °F94 %30.11 in10.0 miWSW (240°)4.6 mphClear
2:15 AM60.8 °F59.0 °F94 %30.11 in10.0 miWSW (240°)3.5 mphClear
2:35 AM60.8 °F60.8 °F100 %30.11 in10.0 miSW (230°)3.5 mphClear
2:55 AM60.8 °F60.8 °F100 %30.12 in10.0 miSW (230°)3.5 mphClear
3:15 AM60.8 °F60.8 °F100 %30.11 in10.0 miWSW (240°)4.6 mphClear
3:35 AM60.8 °F59.0 °F94 %30.11 in10.0 miWSW (250°)3.5 mphClear
3:55 AM60.8 °F59.0 °F94 %30.11 in10.0 miWest (270°)4.6 mphClear
4:15 AM60.8 °F59.0 °F94 %30.11 in10.0 miWest (270°)4.6 mphClear
4:35 AM60.8 °F59.0 °F94 %30.12 in10.0 miWSW (240°)4.6 mphClear
4:55 AM59.0 °F59.0 °F100 %30.12 in10.0 miSSW (200°)3.5 mphClear
5:15 AM57.2 °F57.2 °F100 %30.12 in10.0 miSSW (210°)3.5 mphClear
5:35 AM59.0 °F0.0 °F30.12 in10.0 miSW (220°)3.5 mphClear
5:55 AM59.0 °F0.0 °F30.13 in10.0 miSW (220°)3.5 mphClear
6:15 AM59.0 °F0.0 °F30.13 in10.0 miSW (220°)4.6 mphClear
6:35 AM60.8 °F0.0 °F30.14 in10.0 miSW (220°)3.5 mphClear
6:55 AM59.0 °F0.0 °F30.15 in10.0 miSouth (190°)3.5 mphClear
7:15 AM60.8 °F0.0 °F30.15 in10.0 miCalmClear
7:35 AM62.6 °F0.0 °F30.16 in10.0 miCalmClear
7:55 AM62.6 °F0.0 °F30.16 in10.0 miCalmClear
8:15 AM64.4 °F62.6 °F94 %30.17 in10.0 miCalmClear
8:35 AM66.2 °F62.6 °F88 %30.17 in10.0 miSSW (200°)3.5 mphClear
8:55 AM68.0 °F60.8 °F78 %30.18 in10.0 miSSW (210°)3.5 mphClear
9:15 AM68.0 °F62.6 °F83 %30.18 in10.0 miCalmClear
9:35 AM68.0 °F59.0 °F73 %30.18 in10.0 miSouth (190°)4.6 mphClear
9:55 AM69.8 °F53.6 °F56 %30.18 in10.0 miCalmClear
10:20 AM69.8 °F51.8 °F53 %30.18 in10.0 miWNW (300°)3.5 mphClear
10:40 AM71.6 °F51.8 °F50 %30.19 in10.0 miCalmScattered Clouds
11:20 AM69.8 °F55.4 °F60 %30.19 in10.0 miCalmMostly Cloudy
11:40 AM71.6 °F53.6 °F53 %30.20 in10.0 miCalmOvercast
12:00 PM71.6 °F53.6 °F53 %30.20 in10.0 miCalmScattered Clouds
12:40 PM71.6 °F50.0 °F46 %30.20 in10.0 miWest (270°)4.6 mphMostly Cloudy
1:00 PM71.6 °F51.8 °F50 %30.20 in10.0 miNW (320°)5.8 mphScattered Clouds
1:20 PM71.6 °F55.4 °F57 %30.20 in10.0 miNW (320°)3.5 mphScattered Clouds
1:40 PM71.6 °F51.8 °F50 %30.20 in10.0 miCalmScattered Clouds
2:00 PM73.4 °F51.8 °F47 %30.19 in10.0 miNW (320°)4.6 mphScattered Clouds
2:20 PM71.6 °F55.4 °F57 %30.19 in10.0 miNNW (330°)5.8 mphMostly Cloudy
2:40 PM73.4 °F55.4 °F53 %30.18 in10.0 miNorth (350°)5.8 mphScattered Clouds
3:00 PM73.4 °F57.2 °F57 %30.18 in10.0 miNorth (350°)5.8 mphScattered Clouds
3:20 PM71.6 °F55.4 °F57 %30.18 in10.0 miNNW (340°)3.5 mphMostly Cloudy
3:40 PM73.4 °F55.4 °F53 %30.18 in10.0 miNorth (10°)3.5 mphMostly Cloudy
4:00 PM73.4 °F51.8 °F47 %30.18 in10.0 miNorth (350°)3.5 mphScattered Clouds
4:20 PM73.4 °F55.4 °F53 %30.18 in10.0 miNW (310°)4.6 mphClear
4:40 PM71.6 °F53.6 °F53 %30.17 in10.0 miNW (310°)4.6 mphScattered Clouds
5:00 PM73.4 °F53.6 °F50 %30.17 in10.0 miNNW (340°)4.6 mphScattered Clouds
5:20 PM69.8 °F57.2 °F64 %30.17 in10.0 miNNW (340°)6.9 mphMostly Cloudy
5:40 PM69.8 °F57.2 °F64 %30.17 in10.0 miCalmOvercast
6:00 PM71.6 °F55.4 °F57 %30.17 in10.0 miNorth (10°)3.5 mphScattered Clouds
6:20 PM71.6 °F55.4 °F57 %30.17 in10.0 miNNW (330°)4.6 mphClear
7:00 PM71.6 °F59.0 °F64 %30.17 in10.0 miNNW (340°)3.5 mphScattered Clouds
7:20 PM69.8 °F55.4 °F60 %30.18 in10.0 miCalmClear
7:40 PM69.8 °F57.2 °F64 %30.18 in10.0 miCalmClear
8:00 PM68.0 °F57.2 °F68 %30.19 in10.0 miCalmScattered Clouds
8:20 PM68.0 °F57.2 °F68 %30.19 in10.0 miCalmClear
8:40 PM66.2 °F57.2 °F73 %30.21 in10.0 miCalmClear
9:00 PM64.4 °F59.0 °F83 %30.21 in10.0 miESE (110°)8.1 mphScattered Clouds
9:20 PM62.6 °F59.0 °F88 %30.22 in10.0 miSE (130°)6.9 mphClear
9:40 PM62.6 °F59.0 °F88 %30.22 in10.0 miSE (130°)6.9 mphClear
10:20 PM60.8 °F60.8 °F100 %30.22 in10.0 miESE (120°)6.9 mphClear
10:40 PM60.8 °F60.8 °F100 %30.23 in10.0 miESE (120°)6.9 mphClear
11:00 PM60.8 °F60.8 °F100 %30.23 in10.0 miESE (110°)6.9 mphClear
11:20 PM60.8 °F60.8 °F100 %30.23 in10.0 miESE (120°)5.8 mphClear
11:40 PM60.8 °F60.8 °F100 %30.23 in10.0 miESE (120°)6.9 mphClear
Hourly data recorded from K2G4, located miles away from Westernport, Maryland







STORIES FROM OUR PARTNERS